Wind_Speed
24 25 24 25 25 26 26 25 25 25 25 25 25 25 26 26 25 25 25 25 25 26 26 26 26 26 26 26 26 26 26 26 26 26 27 27 27 26
22 23 23 23 24 24 24 24 24 24 24 24 24 25 25 25 25 25 24 24 25 25 25 26 26 26 26 26 26 26 26 26 26 26 27 28 28 26
22 22 23 23 22 23 23 23 23 24 23 23 24 24 25 25 25 25 25 25 25 25 26 26 25 25 25 25 25 26 26 26 26 26 26 26 25 25
22 22 22 22 22 22 22 22 23 23 23 23 23 25 25 25 25 25 25 26 26 26 26 26 25 25 25 25 25 26 26 26 26 25 25 25 25 26
22 22 22 21 21 21 22 22 23 23 23 23 23 24 25 25 25 25 25 26 25 25 25 25 25 25 25 26 25 26 26 26 25 26 26 26 26 27
21 22 22 21 21 21 22 22 22 23 23 23 23 24 25 25 25 25 25 25 25 25 25 26 25 25 25 25 25 26 26 26 26 26 26 26 26 26
20 20 21 21 22 22 22 22 22 22 22 22 23 23 24 25 25 25 25 25 25 25 25 26 26 25 25 25 25 26 26 26 26 26 25 25 26 26
19 20 20 21 22 22 22 22 22 23 22 21 21 22 23 24 24 25 25 25 25 26 26 26 25 25 25 24 25 26 26 27 26 26 25 25 25 26
18 19 19 19 20 20 20 21 21 22 22 22 21 21 22 23 24 25 25 25 25 25 25 24 24 24 24 23 24 25 26 26 26 26 26 26 26 26
16 16 16 16 16 17 18 19 20 20 21 22 22 21 21 22 22 23 23 23 23 22 22 22 23 23 23 23 23 24 25 26 27 26 26 26 26 25
15 15 15 15 15 16 17 18 18 19 20 21 21 22 22 21 21 21 22 21 21 21 21 21 21 22 22 23 23 23 23 25 26 26 26 25 25 25
15 15 14 14 15 15 16 16 17 17 17 18 19 19 20 20 19 19 20 20 20 21 21 21 21 22 22 23 23 23 22 23 23 24 24 24 25 25
13 13 13 13 14 14 14 14 15 15 16 15 16 17 18 18 19 19 20 20 20 20 21 21 22 22 22 22 22 22 22 22 21 21 22 23 23 24
11 12 12 12 12 12 12 12 12 13 14 14 14 15 16 17 18 18 19 18 19 19 19 20 21 21 21 21 21 21 21 22 21 21 21 22 23 24
11 10 11 10 10 10 10 10 11 12 12 13 13 13 15 16 16 17 17 17 17 18 19 19 20 20 20 20 20 20 21 21 21 21 22 23 23 24
11 11 10 10 10 10 10 10 10 11 11 12 13 13 14 14 15 15 16 16 17 17 18 19 20 20 20 20 21 21 21 21 22 22 22 23 24 24
11 11 11 10 10 10 10 10 9 9 10 11 12 13 13 13 14 15 15 16 16 17 18 18 19 20 20 21 22 22 22 22 23 23 23 23 24 25
11 11 11 10 9 9 9 9 9 9 9 10 11 12 13 13 14 14 14 15 15 16 17 18 19 20 21 21 21 22 22 23 23 24 24 24 24 25
11 11 10 10 10 9 9 9 9 9 9 10 11 12 12 13 14 15 15 16 16 16 17 18 18 19 20 21 22 23 23 23 24 25 25 26 26 26
12 12 11 11 10 10 10 9 10 10 10 11 11 12 12 13 14 15 16 17 17 17 18 19 20 20 21 21 22 23 25 25 26 26 27 27 27 27
13 12 12 12 11 11 11 11 11 11 12 12 12 13 13 14 14 15 16 17 18 18 19 20 21 22 22 22 23 24 26 26 27 27 28 28 28 28
13 13 13 13 14 13 13 13 13 12 13 13 14 14 14 15 16 17 18 19 19 20 21 22 23 23 24 24 25 26 27 27 28 28 28 29 29 29
15 14 14 15 15 15 15 14 14 14 14 15 15 16 16 17 17 19 20 20 21 22 22 23 24 24 25 26 27 28 28 29 29 29 29 30 30 31
Wind_Direction
270 270 270 268 266 264 263 260 259 256 254 254 253 252 252 252 251 253 252 251 251 249 249 250 250 250 251 252 253 253 254 254 252 252 253 255 257 258
269 268 269 269 266 263 262 261 259 258 255 254 253 252 252 253 252 252 250 250 249 249 250 250 251 251 252 252 252 253 253 252 252 252 253 254 256 257
271 269 268 269 267 263 262 261 259 257 256 256 254 254 253 253 254 253 250 249 248 250 251 251 252 252 252 252 253 253 252 251 251 252 252 253 253 255
273 271 269 269 269 267 264 263 260 258 257 257 255 254 254 254 253 252 249 249 251 251 251 251 252 252 252 252 252 252 253 251 251 252 252 252 252 253
274 271 269 269 269 269 266 262 260 258 258 257 256 253 253 253 253 251 250 251 251 251 250 251 252 251 252 252 251 251 252 252 252 252 253 253 254 255
275 272 272 271 269 268 267 264 261 259 258 258 257 254 254 253 252 251 251 251 250 251 251 251 252 253 252 251 249 249 251 252 252 253 254 255 255 256
277 275 274 272 269 265 265 263 262 261 260 259 256 253 253 252 251 250 252 251 251 252 253 252 252 252 251 251 249 248 250 252 253 255 256 256 257 257
277 277 277 276 271 266 265 264 263 262 260 258 256 255 255 253 252 251 253 253 253 252 253 252 252 252 251 252 250 250 251 251 253 254 256 257 258 258
281 279 279 279 275 268 265 264 264 261 258 256 256 257 254 252 253 253 255 253 252 251 251 250 250 251 251 252 252 251 251 251 252 253 254 256 257 258
283 283 282 280 275 269 266 265 262 259 258 257 256 257 256 255 255 254 252 251 250 249 249 250 250 250 251 251 253 252 251 251 252 253 255 257 258 257
288 286 284 279 273 269 267 265 262 259 259 257 257 257 257 256 254 252 251 250 248 249 250 250 250 249 249 250 251 252 253 253 252 253 254 256 256 257
293 290 287 283 276 271 271 268 264 261 258 256 255 253 253 253 252 251 250 249 249 248 248 248 249 250 249 250 250 252 254 256 255 255 254 255 257 258
297 294 291 287 282 278 275 271 267 263 259 258 255 253 252 250 249 250 250 251 250 248 247 247 248 249 249 249 250 252 254 256 257 255 256 257 258 260
305 300 297 294 289 283 278 274 269 266 262 260 257 254 253 251 248 248 249 249 248 247 248 247 247 248 247 247 249 252 254 256 258 258 259 260 262 263
312 308 304 301 297 290 286 280 274 267 263 261 261 258 257 253 251 248 248 248 248 248 248 248 246 247 247 247 249 253 255 257 260 261 261 263 264 265
314 310 308 305 300 298 294 291 285 272 265 263 261 260 258 256 255 253 252 251 250 250 249 248 247 248 249 251 253 256 258 260 262 263 264 265 266 266
322 316 313 310 306 305 300 292 287 279 269 265 261 259 258 256 257 255 254 254 252 251 252 253 254 254 255 255 255 255 258 261 263 264 266 267 268 267
330 325 319 314 311 308 305 298 289 282 275 271 267 263 261 260 260 258 256 255 254 255 256 256 256 256 256 257 257 259 261 264 265 266 268 269 269 267
340 334 328 321 315 312 308 303 299 293 285 280 276 270 266 264 261 260 257 257 257 258 260 259 258 258 259 262 262 263 265 266 267 268 270 271 270 270
339 335 332 329 323 318 313 307 301 297 292 288 283 275 272 270 265 264 262 261 260 261 263 263 264 264 264 265 265 267 268 269 270 271 271 272 272 271
337 334 331 328 323 318 314 310 306 301 294 289 285 280 277 277 272 270 268 265 265 265 265 267 271 270 268 269 269 269 271 272 272 272 273 273 273 272
337 333 330 325 320 315 310 307 305 302 298 294 291 288 285 281 278 276 271 268 268 269 270 270 272 271 271 272 272 271 271 272 274 275 275 275 275 274
331 328 326 325 324 318 312 308 304 300 298 296 292 290 287 284 283 279 274 272 272 273 274 273 273 274 276 276 275 273 271 271 273 274 275 275 276 276
Height
5748 5747 5747 5747 5746 5747 5747 5747 5749 5749 5750 5751 5751 5752 5753 5754 5755 5756 5757 5759 5760 5761 5762 5764 5765 5766 5767 5768 5769 5770 5771 5771 5772 5773 5773 5774 5775 5775
5741 5740 5740 5739 5739 5739 5739 5740 5740 5742 5743 5743 5744 5745 5746 5747 5748 5749 5750 5752 5753 5754 5756 5757 5758 5759 5760 5761 5762 5763 5763 5764 5765 5766 5767 5767 5768 5768
5734 5733 5733 5732 5732 5732 5732 5732 5733 5734 5735 5736 5737 5738 5738 5739 5740 5742 5743 5745 5746 5748 5749 5749 5751 5751 5752 5753 5754 5755 5756 5757 5758 5759 5759 5760 5761 5762
5727 5726 5726 5725 5725 5725 5725 5725 5726 5726 5728 5729 5729 5730 5731 5732 5733 5735 5736 5737 5739 5740 5742 5743 5744 5744 5745 5747 5747 5748 5749 5751 5751 5752 5753 5753 5754 5755
5721 5720 5719 5718 5718 5718 5718 5719 5719 5720 5720 5721 5722 5723 5724 5725 5726 5728 5729 5730 5732 5733 5734 5735 5736 5737 5738 5739 5740 5741 5743 5744 5745 5745 5745 5746 5747 5748
5714 5713 5712 5712 5712 5712 5712 5712 5712 5713 5713 5714 5715 5716 5717 5718 5719 5721 5722 5724 5725 5726 5727 5728 5729 5730 5731 5732 5733 5735 5736 5737 5737 5738 5738 5739 5739 5740
5708 5707 5706 5705 5705 5705 5705 5705 5706 5706 5706 5707 5708 5709 5710 5711 5712 5714 5715 5716 5717 5719 5720 5721 5722 5723 5724 5725 5726 5727 5729 5729 5730 5731 5731 5732 5732 5733
5702 5701 5699 5698 5698 5698 5698 5698 5699 5699 5700 5700 5701 5702 5703 5704 5705 5706 5708 5709 5710 5712 5713 5714 5715 5716 5717 5718 5719 5720 5721 5722 5723 5724 5724 5725 5725 5725
5696 5695 5693 5692 5691 5691 5691 5691 5692 5692 5693 5694 5695 5696 5696 5697 5698 5699 5700 5701 5703 5704 5705 5707 5708 5709 5710 5711 5712 5713 5714 5715 5716 5717 5717 5717 5718 5718
5691 5690 5688 5687 5686 5685 5685 5685 5685 5686 5687 5688 5689 5689 5690 5690 5691 5692 5693 5694 5696 5697 5698 5699 5701 5702 5703 5704 5705 5706 5707 5708 5709 5709 5710 5710 5710 5711
5686 5685 5683 5682 5681 5681 5680 5680 5680 5680 5680 5681 5682 5683 5683 5684 5685 5686 5687 5688 5689 5690 5692 5693 5694 5695 5697 5698 5698 5699 5700 5700 5701 5701 5702 5702 5703 5703
5682 5681 5679 5678 5677 5676 5675 5675 5675 5675 5675 5675 5676 5676 5677 5678 5679 5680 5681 5682 5683 5684 5685 5687 5688 5689 5690 5691 5692 5693 5693 5693 5694 5694 5694 5695 5695 5696
5679 5677 5676 5674 5673 5672 5671 5670 5670 5670 5670 5670 5671 5671 5672 5673 5673 5674 5675 5676 5677 5678 5680 5681 5682 5683 5684 5685 5686 5686 5687 5687 5687 5687 5688 5688 5688 5689
5676 5674 5673 5671 5670 5668 5668 5667 5666 5666 5666 5666 5666 5666 5667 5668 5668 5669 5670 5670 5671 5673 5674 5675 5676 5677 5678 5679 5680 5680 5681 5681 5681 5681 5682 5682 5682 5682
5674 5672 5670 5669 5667 5666 5665 5664 5663 5663 5662 5662 5662 5663 5663 5663 5664 5664 5665 5666 5667 5667 5668 5669 5670 5671 5672 5673 5674 5674 5675 5675 5675 5675 5676 5675 5675 5675
5671 5670 5668 5666 5665 5664 5662 5661 5660 5659 5659 5659 5659 5659 5659 5659 5660 5660 5661 5661 5662 5663 5663 5664 5665 5666 5667 5667 5668 5669 5669 5669 5669 5669 5669 5669 5668 5668
5670 5668 5666 5665 5663 5661 5660 5659 5657 5657 5656 5656 5656 5656 5655 5655 5656 5656 5656 5657 5657 5658 5659 5659 5659 5660 5661 5662 5662 5662 5663 5663 5662 5662 5662 5662 5662 5661
5669 5666 5665 5663 5661 5659 5658 5657 5655 5654 5653 5653 5653 5652 5652 5652 5652 5652 5652 5653 5653 5653 5654 5654 5654 5655 5655 5656 5656 5656 5656 5656 5656 5655 5655 5655 5654 5654
5668 5665 5663 5661 5659 5658 5656 5655 5653 5652 5651 5650 5650 5649 5649 5648 5648 5648 5648 5649 5649 5649 5649 5649 5649 5649 5650 5650 5650 5650 5649 5649 5649 5648 5648 5647 5647 5646
5667 5665 5662 5660 5658 5656 5655 5653 5652 5650 5649 5648 5647 5646 5645 5645 5644 5644 5644 5644 5645 5644 5644 5644 5644 5644 5644 5644 5644 5643 5642 5642 5641 5640 5640 5639 5638 5638
5666 5663 5661 5659 5657 5655 5653 5651 5650 5648 5647 5645 5644 5643 5642 5641 5641 5640 5640 5640 5639 5639 5639 5639 5638 5637 5637 5637 5637 5636 5635 5634 5633 5632 5631 5631 5630 5629
5664 5662 5659 5657 5655 5653 5651 5649 5647 5645 5644 5642 5641 5639 5638 5637 5636 5636 5635 5635 5634 5634 5633 5633 5631 5631 5630 5630 5629 5628 5628 5626 5625 5623 5622 5621 5620 5620
5663 5660 5657 5655 5652 5650 5648 5646 5644 5642 5640 5639 5637 5635 5634 5632 5631 5630 5629 5629 5628 5627 5626 5625 5624 5623 5622 5621 5621 5620 5619 5618 5616 5615 5614 5612 5611 5610